This is the latest recevied weather packets stored in our database for station/object N3TJJ-11. If no packets are shown the sender has not sent any weather packets the latest 1 day(s).
| Time | Temp. | Humidity | Pressure | Rain* | Wind** | Luminosity | Snow |
|---|---|---|---|---|---|---|---|
| 1778033024 | 18.89° C | 59% | 1008 hPa | 0 mm | 2.24 m/s, 243° | - | - |
| 1778032783 | 18.89° C | 59% | 1008 hPa | 0 mm | 1.79 m/s, 202° | - | - |
| 1778032424 | 18.89° C | 59% | 1008 hPa | 0 mm | 2.24 m/s, 221° | - | - |
| 1778032063 | 18.89° C | 58% | 1007.9 hPa | 0 mm | 2.24 m/s, 200° | - | - |
| 1778031824 | 19.44° C | 58% | 1007.9 hPa | 0 mm | 2.24 m/s, 227° | - | - |
| 1778031343 | 19.44° C | 57% | 1007.8 hPa | 0 mm | 2.68 m/s, 231° | - | - |
| 1778031224 | 19.44° C | 57% | 1007.8 hPa | 0 mm | 2.68 m/s, 234° | - | - |
| 1778030623 | 19.44° C | 56% | 1007.6 hPa | 0 mm | 2.24 m/s, 191° | - | - |
| 1778030024 | 19.44° C | 55% | 1007.5 hPa | 0 mm | 1.79 m/s, 176° | - | - |
| 1778029903 | 19.44° C | 55% | 1007.5 hPa | 0 mm | 1.79 m/s, 178° | - | - |
| 1778029424 | 20° C | 54% | 1007.3 hPa | 0 mm | 1.79 m/s, 183° | - | - |
| 1778029183 | 20° C | 54% | 1007.3 hPa | 0 mm | 2.24 m/s, 177° | - | - |
| 1778028824 | 20° C | 53% | 1007.3 hPa | 0 mm | 2.24 m/s, 227° | - | - |
| 1778028463 | 20.56° C | 53% | 1007.1 hPa | 0 mm | 2.24 m/s, 242° | - | - |
| 1778028224 | 20.56° C | 52% | 1007.1 hPa | 0 mm | 2.68 m/s, 233° | - | - |
| 1778027743 | 20.56° C | 51% | 1007 hPa | 0 mm | 2.68 m/s, 216° | - | - |
| 1778027624 | 20.56° C | 52% | 1007 hPa | 0 mm | 2.68 m/s, 197° | - | - |
| 1778027023 | 21.11° C | 50% | 1007 hPa | 0 mm | 3.13 m/s, 220° | - | - |
| 1778026424 | 21.11° C | 49% | 1007 hPa | 0 mm | 2.68 m/s, 229° | - | - |
| 1778026303 | 21.11° C | 49% | 1007 hPa | 0 mm | 2.68 m/s, 242° | - | - |
| 1778025824 | 21.67° C | 48% | 1006.9 hPa | 0 mm | 2.24 m/s, 191° | - | - |
| 1778025583 | 21.67° C | 47% | 1006.9 hPa | 0 mm | 2.24 m/s, 165° | - | - |
| 1778025224 | 21.67° C | 46% | 1006.8 hPa | 0 mm | 2.24 m/s, 218° | - | - |
| 1778024863 | 22.22° C | 45% | 1006.7 hPa | 0 mm | 2.24 m/s, 193° | - | - |
| 1778024624 | 22.22° C | 45% | 1006.8 hPa | 0 mm | 2.24 m/s, 207° | - | - |
* Rain latest hour (hover to see other rain measurements)
** Current wind speed in m/s (hover to see current wind gust speed)